Weather History for Safford, AZ

Change the Weather History Date:

Tuesday, February 21, 2012

  Actual Average Record
Temperature  
Mean Temperature 50 °F -  
Max Temperature 66 °F 64 °F 81 °F (1972)
Min Temperature 34 °F 32 °F 12 °F (1953)
Degree Days  
Heating Degree Days 15    
Moisture  
Dew Point 26 °F    
Average Humidity 47    
Maximum Humidity 79    
Minimum Humidity 18    
Precipitation  
Precipitation 0.00 in - - ()
Sea Level Pressure  
Sea Level Pressure 30.07 in    
Wind  
Wind Speed 3 mph (NW)    
Max Wind Speed 7 mph    
Max Gust Speed -    
Visibility 10 miles    
Events      
Averages and records for this station are not official NWS values.
T = Trace of Precipitation, MM = Missing Value Source: NWS Daily Summary

Daily Weather History Graph

Daily Weather History Graph

Search for Another Location

Airport:

Trip Planner

Search our weather history database for the weather conditions in past years. The results will help you decide how hot, cold, wet, or windy it might be!

Date:

Astronomy

Feb. 21, 2012 Rise Set
Actual Time 6:56 AM MST 6:08 PM MST
Civil Twilight 6:31 AM MST 6:33 PM MST
Nautical Twilight 6:02 AM MST 7:02 PM MST
Astronomical Twilight 5:33 AM MST 7:31 PM MST
Moon 6:28 AM MST (2/21) 6:15 PM MST (2/21)
Length of Visible Light 12h 02m
Length of Day
11h 12m
Waning Crescent, 0% of the Moon is Illuminated
Feb 21
Waning Crescent
Feb 21
New
Feb 29
First Quarter
Mar 8
Full
Mar 14
Last Quarter

Hourly Weather History & Observations

Time (MST) Temp. Windchill Dew Point Humidity Pressure Visibility Wind Dir Wind Speed Gust Speed Precip Events Conditions
12:51 AM 39.0 °F 36.8 °F 30.9 °F 73% 30.06 in 10.0 mi NNW 3.5 mph - N/A   Clear
1:51 AM 37.9 °F 34.4 °F 30.0 °F 73% 30.07 in 10.0 mi ENE 4.6 mph - N/A   Clear
2:51 AM 39.0 °F - 28.9 °F 67% 30.05 in 10.0 mi Calm Calm - N/A   Clear
3:51 AM 36.0 °F - 28.9 °F 76% 30.05 in 10.0 mi Calm Calm - N/A   Clear
4:51 AM 36.0 °F 32.1 °F 28.9 °F 76% 30.06 in 10.0 mi North 4.6 mph - N/A   Clear
5:51 AM 34.0 °F 31.0 °F 28.0 °F 79% 30.08 in 10.0 mi ENE 3.5 mph - N/A   Clear
6:51 AM 34.0 °F - 28.0 °F 79% 30.12 in 10.0 mi Calm Calm - N/A   Clear
7:51 AM 37.0 °F - 28.9 °F 73% 30.15 in 10.0 mi Calm Calm - N/A   Clear
8:51 AM 43.0 °F 41.3 °F 28.0 °F 56% 30.17 in 10.0 mi NNW 3.5 mph - N/A   Clear
9:51 AM 48.9 °F - 28.0 °F 44% 30.14 in 10.0 mi Calm Calm - N/A   Clear
10:51 AM 52.0 °F - 27.0 °F 38% 30.13 in 10.0 mi Calm Calm - N/A   Clear
11:51 AM 57.0 °F - 25.0 °F 29% 30.11 in 10.0 mi Calm Calm - N/A   Clear
12:51 PM 61.0 °F - 23.0 °F 23% 30.08 in 10.0 mi Calm Calm - N/A   Clear
1:51 PM 64.0 °F - 23.0 °F 21% 30.05 in 10.0 mi West 3.5 mph - N/A   Clear
2:51 PM 64.9 °F - 21.9 °F 19% 30.03 in 10.0 mi Variable 4.6 mph - N/A   Clear
3:51 PM 66.0 °F - 21.0 °F 18% 30.02 in 10.0 mi WSW 5.8 mph - N/A   Clear
4:51 PM 66.0 °F - 21.0 °F 18% 30.00 in 10.0 mi West 4.6 mph - N/A   Clear
5:51 PM 64.0 °F - 21.0 °F 19% 30.01 in 10.0 mi WSW 5.8 mph - N/A   Clear
6:51 PM 57.0 °F - 26.1 °F 30% 30.04 in 10.0 mi West 6.9 mph - N/A   Clear
7:51 PM 55.0 °F - 28.0 °F 35% 30.05 in 10.0 mi WNW 3.5 mph - N/A   Clear
8:51 PM 51.1 °F - 28.0 °F 41% 30.05 in 10.0 mi NNW 6.9 mph - N/A   Clear
9:51 PM 50.0 °F - 26.1 °F 39% 30.05 in 10.0 mi North 5.8 mph - N/A   Clear
10:51 PM 50.0 °F - 24.1 °F 36% 30.06 in 10.0 mi West 4.6 mph - N/A   Clear
11:51 PM 44.1 °F 40.8 °F 28.9 °F 55% 30.08 in 10.0 mi East 5.8 mph - N/A   Clear